Home > Weather > Chemnitz > Past weeks

Flag for Germany Weather for the Past 2 Weeks in Chemnitz, Saxony, Germany

Now
50 °F

Sunny.


Feels Like: 46 °F
Forecast: 37 / 50 °F
Wind: 10 mph from South

Location: Altenburg Nobitz

Current Time: Feb 6, 2016 at 8:08:47 PM

Latest Report: Feb 6, 2016 at 4:50 PM


Visibility: 10 mi

Pressure: 29.89 "Hg

Humidity: 67%

Dew point: 39 °F

Location of ChemnitzLocation

Historic Weather in Chemnitz — Graph

°F

Chemnitz Temperature Yesterday

Maximum temperature yesterday: 43 °F (at 2:20 PM)
Minimum temperature yesterday: 36 °F (at 7:50 AM)
Average temperature yesterday: 40 °F

High & Low Weather Summary for the Past Weeks

 TemperatureHumidityPressure
High55 °F (Feb 1, 2:50 PM)100% (Jan 23, 8:50 AM)30.51 "Hg (Jan 23, 8:50 AM)
Low16 °F (Jan 22, 5:50 PM)57% (Jan 28, 4:20 PM)29.80 "Hg (Feb 2, 4:20 PM)
Average45 °F81%30.15 "Hg
* Reported Jan 22 4:20 PM — Feb 6 4:50 PM, Chemnitz, Weather by CustomWeather, © 2016

Note: Actual official high and low records may vary slightly from our data, if they occured in-between our weather recording intervals... More about our weather records

Advertising

Chemnitz Weather History for the Previous 24 Hours

 ConditionsComfort  
Time TempWeatherWind HumidityBarometerVisibility
4:50 PM
Sat, Feb 6
50 °FSunny.10 mph67%29.89 "Hg10 mi
4:20 PM50 °FSunny.15 mph67%29.92 "Hg10 mi
3:50 PM50 °FSunny.14 mph67%29.92 "Hg10 mi
3:20 PM50 °FSunny.13 mph71%29.92 "Hg10 mi
2:50 PM50 °FSunny.12 mph67%29.95 "Hg10 mi
2:20 PM50 °FSunny.15 mph67%29.95 "Hg10 mi
1:50 PM50 °FSunny.16 mph67%29.98 "Hg10 mi
1:20 PM52 °FSunny.13 mph67%29.98 "Hg10 mi
12:50 PM52 °FPassing clouds.8 mph67%29.98 "HgN/A
12:20 PM50 °FSunny.9 mph67%29.98 "Hg10 mi
11:50 AM50 °FSunny.10 mph67%29.98 "Hg10 mi
11:20 AM48 °FPassing clouds.8 mph71%30.01 "HgN/A
10:50 AM48 °FSunny.12 mph66%30.01 "Hg10 mi
10:20 AM46 °FSunny.14 mph71%30.04 "Hg10 mi
9:50 AM46 °FPassing clouds.12 mph71%30.04 "HgN/A
9:20 AM45 °FPassing clouds.7 mph76%30.04 "HgN/A
8:50 AM43 °FSunny.3 mph81%30.07 "Hg10 mi
Weather by CustomWeather, © 2016

See weather overviewHow to use our weather pages